GW5972 Weather Reports


time (UTC)temp
F
wind
direction
speed
knots
gust
knots
rain 1hr
in
rain 24hr
in
rain mn
in
humidity
%
barometer
mb
20260503021837 52 33 0.0 0.9 0.02 0.00 0.22 96 1003.0
20260503021338 52 2 0.0 0.0 0.02 0.00 0.22 96 1003.0
20260503020837 52 41 0.0 0.0 0.02 0.00 0.22 96 1003.0
20260503020337 52 41 0.0 0.9 0.05 0.00 0.22 96 1004.0
20260503015837 52 9 0.9 1.7 0.05 0.00 0.21 96 1003.0
20260503015336 52 39 0.0 0.0 0.02 0.00 0.21 96 1004.0
20260503014836 52 40 0.0 0.0 0.02 0.00 0.20 96 1004.0
20260503014336 52 40 0.0 0.9 0.02 0.00 0.20 96 1004.0
20260503013836 52 42 0.0 0.0 0.05 0.00 0.20 95 1004.0
20260503013336 52 42 0.0 0.0 0.05 0.00 0.20 95 1004.0
20260503012836 52 43 0.0 0.0 0.05 0.00 0.19 95 1004.0
20260503012336 52 43 0.0 0.0 0.05 0.00 0.19 95 1004.0
20260503011836 52 43 0.0 0.9 0.09 0.00 0.18 95 1004.0
20260503011337 52 40 0.0 0.0 0.09 0.00 0.18 95 1004.0
20260503010837 52 40 0.0 0.0 0.09 0.00 0.17 95 1004.0
20260503010337 52 40 0.0 0.0 0.14 0.00 0.16 95 1004.0
20260503005836 52 40 0.0 0.0 0.14 0.00 0.15 95 1004.0
20260503005336 52 40 0.0 0.0 0.24 0.00 0.14 95 1004.0
20260503004836 52 40 0.0 0.0 0.24 0.00 0.12 95 1004.0
20260503004337 52 40 0.0 0.9 0.17 0.00 0.09 95 1004.0
20260503003836 52 40 0.0 0.9 0.12 0.00 0.07 95 1004.0
20260503003337 52 40 0.0 0.0 0.12 0.00 0.06 95 1004.0
20260503002837 52 40 0.0 0.0 0.12 0.00 0.05 94 1004.0
20260503002336 52 40 0.0 0.0 0.14 0.00 0.04 94 1004.0
20260503001836 52 40 0.0 0.0 0.12 0.00 0.03 94 1004.0
20260503001337 53 40 0.0 0.0 0.09 0.00 0.02 94 1004.0
20260503000836 53 40 0.0 0.0 0.07 0.00 0.01 94 1004.0
20260503000336 53 40 0.0 0.0 0.07 0.00 0.00 94 1004.0
20260502235836 53 40 0.0 0.0 0.05 0.00 0.31 94 1004.0
20260502235336 53 40 0.0 0.0 0.05 0.00 0.30 94 1005.0
20260502234837 53 40 0.0 0.0 0.05 0.00 0.30 94 1005.0
20260502234337 53 40 0.0 0.0 0.05 0.00 0.29 94 1005.0
20260502233837 53 43 0.0 0.0 0.09 0.00 0.29 94 1005.0
20260502233336 53 43 0.0 0.0 0.12 0.00 0.29 94 1005.0
20260502232837 53 342 0.0 0.0 0.09 0.00 0.28 94 1005.0
20260502232337 53 342 0.0 0.0 0.12 0.00 0.27 93 1005.0
20260502231836 53 342 0.0 0.0 0.09 0.00 0.26 93 1005.0
20260502231337 53 342 0.0 0.0 0.12 0.00 0.25 93 1005.0
20260502230836 53 342 0.0 0.0 0.12 0.00 0.24 93 1005.0
20260502230337 53 342 0.0 0.0 0.12 0.00 0.23 93 1005.0
20260502225837 53 342 0.0 0.0 0.09 0.00 0.22 93 1005.0
20260502225336 53 342 0.0 0.0 0.12 0.00 0.21 93 1005.0
20260502224837 53 342 0.0 0.0 0.09 0.00 0.20 93 1005.0
20260502224337 53 342 0.0 0.0 0.09 0.00 0.19 93 1005.0
20260502223836 53 342 0.0 0.0 0.07 0.00 0.18 93 1005.0
20260502223336 53 342 0.0 0.0 0.05 0.00 0.17 93 1005.0
20260502222836 53 342 0.0 0.0 0.05 0.00 0.17 92 1005.0
20260502222336 54 342 0.0 0.0 0.07 0.00 0.16 92 1005.0
20260502221837 54 342 0.0 0.0 0.09 0.00 0.16 92 1005.0
20260502221337 54 342 0.0 0.0 0.07 0.00 0.15 92 1005.0
20260502220838 54 342 0.0 0.0 0.07 0.00 0.14 92 1005.0
20260502220337 54 342 0.0 0.0 0.07 0.00 0.13 92 1005.0
20260502215837 54 342 0.0 0.0 0.05 0.00 0.13 92 1005.0
20260502215336 54 342 0.0 0.0 0.05 0.00 0.12 92 1005.0
20260502214836 54 342 0.0 0.0 0.05 0.00 0.12 92 1005.0
20260502214336 54 342 0.0 0.0 0.07 0.00 0.11 92 1005.0
20260502213836 54 342 0.0 0.0 0.07 0.00 0.11 91 1005.0
20260502213337 54 342 0.0 0.0 0.07 0.00 0.10 91 1005.0
20260502212837 54 342 0.0 0.0 0.05 0.00 0.09 91 1005.0
20260502212336 54 342 0.0 0.0 0.07 0.00 0.09 91 1005.0
20260502211836 54 342 0.0 0.0 0.07 0.00 0.08 91 1005.0
20260502211337 54 342 0.0 0.0 0.12 0.00 0.08 91 1005.0
20260502210836 55 342 0.0 0.0 0.09 0.00 0.07 91 1005.0
20260502210336 55 342 0.0 0.0 0.12 0.00 0.06 91 1005.0
20260502205836 55 342 0.0 0.0 0.09 0.00 0.05 91 1005.0
20260502205336 55 342 0.0 0.0 0.05 0.00 0.04 90 1006.0
20260502204836 55 342 0.0 0.0 0.05 0.00 0.04 90 1006.0
20260502204336 55 342 0.0 0.0 0.02 0.00 0.03 90 1006.0
20260502203837 55 342 0.0 0.0 0.00 0.00 0.02 90 1006.0
20260502203336 55 342 0.0 0.0 0.02 0.00 0.02 90 1005.0
20260502202837 55 342 0.0 0.0 0.00 0.00 0.02 89 1006.0
20260502202337 55 342 0.0 0.0 0.00 0.00 0.02 89 1005.0
20260502201836 55 342 0.0 0.0 0.02 0.00 0.02 89 1006.0
20260502201336 55 342 0.0 0.0 0.02 0.00 0.02 89 1006.0
20260502200836 56 342 0.0 0.0 0.00 0.00 0.02 88 1006.0
20260502200337 56 342 0.0 0.0 0.00 0.00 0.02 88 1006.0
20260502195836 56 342 0.0 0.0 0.02 0.00 0.02 88 1005.0
20260502195336 56 342 0.0 0.0 0.02 0.00 0.02 87 1006.0
20260502194836 56 342 0.0 0.0 0.00 0.00 0.01 87 1005.0
20260502194337 56 342 0.0 0.0 0.02 0.00 0.01 86 1006.0
20260502193836 57 342 0.0 0.0 0.02 0.00 0.01 85 1005.0
20260502193336 57 342 0.0 0.0 0.02 0.00 0.01 85 1006.0
20260502192836 57 342 0.0 0.0 0.00 0.00 0.00 84 1006.0
20260502192336 57 342 0.0 0.0 0.00 0.00 0.00 83 1005.0
20260502191836 57 342 0.0 0.0 0.00 0.00 0.00 82 1005.0
20260502191336 57 342 0.0 0.0 0.00 0.00 0.00 82 1006.0
20260502190836 57 342 0.0 0.0 0.00 0.00 0.00 81 1006.0
20260502190336 57 342 0.0 0.0 0.00 0.00 0.00 81 1005.0
20260502185836 57 342 0.0 0.0 0.00 0.00 0.00 80 1005.0
20260502185337 57 342 0.0 0.0 0.00 0.00 0.00 80 1005.0
20260502184837 58 342 0.0 0.0 0.00 0.00 0.00 79 1005.0
20260502184337 58 342 0.0 0.0 0.00 0.00 0.00 78 1006.0
20260502183836 58 342 0.0 0.0 0.00 0.00 0.00 78 1006.0
20260502183337 58 342 0.0 0.0 0.00 0.00 0.00 76 1005.0
20260502182838 58 342 0.0 0.0 0.00 0.00 0.00 76 1006.0
20260502182336 58 342 0.0 0.0 0.00 0.00 0.00 75 1006.0
20260502181836 59 342 0.0 0.0 0.00 0.00 0.00 74 1006.0
20260502181337 59 342 0.0 0.0 0.00 0.00 0.00 74 1006.0
20260502180838 59 342 0.0 0.0 0.00 0.00 0.00 74 1006.0
20260502180337 59 343 0.0 0.0 0.00 0.00 0.00 73 1006.0
20260502170337 59 51 0.0 0.0 0.00 0.00 0.00 71 1006.0
20260502164336 59 50 0.0 0.0 0.00 0.00 0.00 69 1006.0
20260502163837 59 51 0.9 0.9 0.00 0.00 0.00 68 1006.0
20260502163336 59 325 0.0 0.9 0.00 0.00 0.00 68 1006.0
20260502162836 59 51 0.0 0.0 0.00 0.00 0.00 68 1006.0
20260502162337 59 51 0.0 0.9 0.00 0.00 0.00 68 1006.0
20260502161836 60 79 0.0 0.9 0.00 0.00 0.00 68 1006.0
20260502161340 60 49 0.0 0.9 0.00 0.00 0.00 67 1006.0
20260502160836 60 64 0.0 1.7 0.00 0.00 0.00 65 1006.0
20260502160336 61 91 0.0 0.9 0.00 0.00 0.00 64 1006.0
20260502152337 63 30 0.9 1.7 0.00 0.00 0.00 59 1007.0
20260502151836 63 15 0.9 0.9 0.00 0.00 0.00 59 1007.0
20260502151336 63 12 0.0 0.0 0.00 0.00 0.00 59 1007.0
20260502150837 63 352 0.0 0.9 0.00 0.00 0.00 59 1007.0
20260502150336 63 318 0.0 0.0 0.00 0.00 0.00 59 1007.0
20260502130336 63 315 0.0 0.0 0.00 0.00 0.00 61 1008.0
20260502123336 63 178 0.0 0.0 0.00 0.00 0.00 58 1008.0
20260502122837 63 173 0.0 0.9 0.00 0.00 0.00 60 1008.0
20260502122337 63 172 0.0 1.7 0.00 0.00 0.00 58 1009.0
20260502121837 62 124 0.0 0.9 0.00 0.00 0.00 60 1009.0
20260502121336 62 142 0.0 0.9 0.00 0.00 0.00 61 1009.0
20260502120836 62 160 0.0 0.0 0.00 0.00 0.00 59 1009.0
20260502120336 63 188 1.7 2.6 0.00 0.00 0.00 57 1009.0
20260502115836 64 65 0.0 1.7 0.00 0.00 0.00 58 1009.0
20260502115337 63 192 0.0 1.7 0.00 0.00 0.00 61 1009.0
20260502114836 61 225 2.6 4.3 0.00 0.00 0.00 61 1009.0
20260502114336 60 145 0.9 2.6 0.00 0.00 0.00 63 1009.0
20260502113836 60 212 0.9 0.9 0.00 0.00 0.00 66 1009.0
20260502113337 61 223 0.0 0.9 0.00 0.00 0.00 65 1009.0
20260502112837 61 210 0.0 1.7 0.00 0.00 0.00 64 1009.0
20260502112338 60 161 0.9 0.9 0.00 0.00 0.00 66 1009.0
20260502111837 61 188 0.9 1.7 0.00 0.00 0.00 64 1009.0
20260502111337 60 225 0.0 0.0 0.00 0.00 0.00 67 1009.0
20260502110837 60 226 0.0 0.9 0.00 0.00 0.00 66 1009.0
20260502110337 60 227 0.0 0.9 0.00 0.00 0.00 68 1009.0
20260502105836 60 201 0.0 0.9 0.00 0.00 0.00 68 1009.0
20260502105337 60 190 0.9 0.9 0.00 0.00 0.00 67 1009.0
20260502104836 59 154 0.0 0.0 0.00 0.00 0.00 70 1009.0
20260502104337 59 181 0.0 0.9 0.00 0.00 0.00 69 1009.0
20260502103836 59 191 0.0 0.9 0.00 0.00 0.00 69 1009.0
20260502103337 59 189 0.0 0.9 0.00 0.00 0.00 69 1009.0
20260502102836 59 182 0.9 0.9 0.00 0.00 0.00 70 1010.0
20260502102336 58 180 0.0 0.9 0.00 0.00 0.00 71 1009.0
20260502101837 58 176 0.0 0.0 0.00 0.00 0.00 73 1010.0
20260502101336 58 176 0.0 0.9 0.00 0.00 0.00 70 1010.0
20260502100836 58 157 0.0 0.0 0.00 0.00 0.00 72 1010.0
20260502100336 58 136 0.0 0.0 0.00 0.00 0.00 71 1010.0
20260502091337 57 166 0.0 0.0 0.00 0.00 0.00 74 1010.0
20260502090837 56 208 0.0 0.9 0.00 0.00 0.00 77 1010.0
20260502090336 55 190 0.0 0.0 0.00 0.00 0.00 78 1010.0
20260502071336 50 200 0.0 0.0 0.00 0.00 0.00 95 1010.0
20260502070836 50 210 0.0 0.0 0.00 0.00 0.00 96 1010.0
20260502070337 49 199 0.0 1.7 0.00 0.00 0.00 96 1010.0
20260502065836 49 144 0.0 0.0 0.00 0.00 0.00 96 1010.0
20260502065337 49 144 0.0 0.9 0.00 0.00 0.00 96 1010.0
20260502064836 48 144 0.0 0.0 0.00 0.00 0.00 96 1010.0
20260502064336 48 144 0.0 0.0 0.00 0.00 0.00 96 1010.0
20260502063837 48 144 0.0 0.0 0.00 0.00 0.00 96 1010.0
20260502063337 48 144 0.0 0.0 0.00 0.00 0.00 96 1010.0
20260502062837 48 142 0.0 0.0 0.00 0.00 0.00 96 1010.0
20260502062336 47 142 0.0 0.0 0.00 0.00 0.00 96 1010.0
20260502061836 47 142 0.0 0.9 0.00 0.00 0.00 96 1010.0
20260502061336 47 142 0.0 0.0 0.00 0.00 0.00 96 1010.0
20260502060837 47 142 0.0 0.0 0.00 0.00 0.00 96 1010.0
20260502060337 47 141 0.0 0.0 0.00 0.00 0.00 96 1010.0
20260502055837 47 141 0.0 0.9 0.00 0.00 0.00 96 1010.0
20260502055338 47 141 0.0 0.9 0.00 0.00 0.00 96 1010.0
20260502054836 47 141 0.0 0.0 0.00 0.00 0.00 96 1010.0
20260502054337 47 141 0.0 0.0 0.00 0.00 0.00 96 1010.0
20260502053837 46 141 0.0 0.0 0.00 0.00 0.00 96 1010.0
20260502053336 46 140 0.0 0.0 0.00 0.00 0.00 96 1010.0
20260502052837 46 140 0.0 0.0 0.00 0.00 0.00 96 1010.0
20260502052336 46 140 0.0 0.0 0.00 0.00 0.00 96 1010.0
20260502051837 46 140 0.0 0.0 0.00 0.00 0.00 96 1010.0
20260502051337 46 140 0.0 0.0 0.00 0.00 0.00 96 1010.0
20260502050837 46 140 0.0 0.0 0.00 0.00 0.00 96 1010.0
20260502050336 46 140 0.0 0.0 0.00 0.00 0.00 96 1010.0
20260502045836 46 140 0.0 0.0 0.00 0.00 0.00 96 1010.0
20260502045336 46 140 0.0 0.0 0.00 0.00 0.00 96 1010.0
20260502044836 46 140 0.0 0.0 0.00 0.00 0.00 96 1010.0
20260502044336 46 140 0.0 0.0 0.00 0.00 0.00 96 1010.0
20260502043836 46 140 0.0 0.0 0.00 0.00 0.00 96 1010.0
20260502043337 46 140 0.0 0.0 0.00 0.00 0.00 96 1010.0
20260502042836 46 140 0.0 0.0 0.00 0.00 0.00 96 1010.0
20260502042336 46 140 0.0 0.0 0.00 0.00 0.00 96 1010.0
20260502041836 46 140 0.0 0.0 0.00 0.00 0.00 96 1010.0
20260502041337 46 140 0.0 0.0 0.00 0.00 0.00 96 1010.0
20260502040836 46 140 0.0 0.0 0.00 0.00 0.00 95 1010.0
20260502040336 46 140 0.0 0.0 0.00 0.00 0.00 95 1010.0
20260502035837 46 140 0.0 0.0 0.00 0.00 0.00 95 1010.0
20260502035336 46 140 0.0 0.0 0.02 0.00 0.00 95 1010.0
20260502034837 46 140 0.0 0.0 0.02 0.00 0.00 95 1010.0
20260502034336 46 140 0.0 0.0 0.00 0.00 0.00 95 1010.0
20260502033836 46 140 0.0 0.0 0.00 0.00 0.00 95 1010.0
20260502033337 46 140 0.0 0.0 0.00 0.00 0.00 95 1010.0
20260502032836 46 140 0.0 0.0 0.00 0.00 0.00 95 1010.0
20260502032336 46 140 0.0 0.0 0.00 0.00 0.00 95 1010.0
20260502031839 46 140 0.0 0.0 0.00 0.00 0.00 95 1010.0
20260502031336 46 140 0.0 0.0 0.00 0.00 0.00 95 1011.0
20260502030836 46 140 0.0 0.0 0.00 0.00 0.00 95 1010.0
20260502030336 46 140 0.0 0.0 0.00 0.00 0.00 95 1010.0
20260502025838 46 140 0.0 0.0 0.00 0.00 0.00 95 1011.0
20260502025336 47 140 0.0 0.0 0.00 0.00 0.00 95 1010.0
20260502024836 47 140 0.0 0.0 0.00 0.00 0.00 95 1010.0
20260502024337 47 140 0.0 0.0 0.00 0.00 0.00 95 1010.0
20260502023837 47 140 0.0 0.0 0.00 0.00 0.00 95 1010.0
20260502023336 47 140 0.0 0.0 0.00 0.00 0.00 95 1010.0
20260502022836 47 140 0.0 0.0 0.00 0.00 0.00 95 1011.0
20260502022337 46 140 0.0 0.0 0.00 0.00 0.00 95 1010.0